Time,TemperatureF,DewpointF,PressureIn,WindDirection,WindDirectionDegrees,WindSpeedMPH,WindSpeedGustMPH,Humidity,HourlyPrecipIn,Conditions,Clouds,dailyrainin,SolarRadiationWatts/m^2,SoftwareType,DateUTC
2013-01-07 00:12:00,70.1,-99.9,30.06,East,92,0.0,3.0,0,0.00,,,0.00,0,weatherlink.com 1.10,2013-01-07 04:12:00,
2013-01-07 00:27:00,69.9,-99.9,30.06,East,92,0.0,0.0,0,0.00,,,0.00,0,weatherlink.com 1.10,2013-01-07 04:27:00,
2013-01-07 00:42:00,70.1,-99.9,30.06,East,92,0.0,1.0,0,0.00,,,0.00,0,weatherlink.com 1.10,2013-01-07 04:42:00,
2013-01-07 00:57:00,70.2,-99.9,30.05,East,92,0.0,1.0,0,0.00,,,0.00,0,weatherlink.com 1.10,2013-01-07 04:57:00,
2013-01-07 01:13:00,70.4,-99.9,30.04,East,92,0.0,1.0,0,0.00,,,0.00,0,weatherlink.com 1.10,2013-01-07 05:13:00,
2013-01-07 01:28:00,70.6,-99.9,30.04,East,92,0.0,1.0,0,0.00,,,0.00,0,weatherlink.com 1.10,2013-01-07 05:28:00,
2013-01-07 01:43:00,69.8,-99.9,30.03,East,92,0.0,2.0,0,0.00,,,0.00,0,weatherlink.com 1.10,2013-01-07 05:43:00,
2013-01-07 01:58:00,69.9,-99.9,30.03,East,92,0.0,1.0,0,0.00,,,0.00,0,weatherlink.com 1.10,2013-01-07 05:58:00,
2013-01-07 02:13:00,70.2,-99.9,30.03,East,92,0.0,1.0,0,0.00,,,0.00,0,weatherlink.com 1.10,2013-01-07 06:13:00,
2013-01-07 02:28:00,70.2,-99.9,30.02,East,92,2.0,2.0,0,0.00,,,0.00,0,weatherlink.com 1.10,2013-01-07 06:28:00,
2013-01-07 02:43:00,70.0,-99.9,30.02,East,92,0.0,2.0,0,0.00,,,0.00,0,weatherlink.com 1.10,2013-01-07 06:43:00,
2013-01-07 02:58:00,70.3,-99.9,30.01,East,92,0.0,1.0,0,0.00,,,0.00,0,weatherlink.com 1.10,2013-01-07 06:58:00,
2013-01-07 03:13:00,69.9,-99.9,30.02,East,92,0.0,2.0,0,0.00,,,0.00,0,weatherlink.com 1.10,2013-01-07 07:13:00,
2013-01-07 03:28:00,69.9,-99.9,30.01,East,92,3.0,3.0,0,0.00,,,0.00,0,weatherlink.com 1.10,2013-01-07 07:28:00,
2013-01-07 03:43:00,70.3,-99.9,30.00,East,92,1.0,3.0,0,0.00,,,0.00,0,weatherlink.com 1.10,2013-01-07 07:43:00,
2013-01-07 03:58:00,70.4,-99.9,30.01,East,89,2.0,3.0,0,0.00,,,0.00,0,weatherlink.com 1.10,2013-01-07 07:58:00,
2013-01-07 04:14:00,70.2,-99.9,30.01,ENE,61,1.0,8.0,0,0.00,,,0.00,0,weatherlink.com 1.10,2013-01-07 08:14:00,
2013-01-07 04:29:00,70.3,-99.9,30.01,ENE,61,0.0,1.0,0,0.00,,,0.00,0,weatherlink.com 1.10,2013-01-07 08:29:00,
2013-01-07 04:44:00,70.3,-99.9,30.01,East,90,0.0,2.0,0,0.00,,,0.00,0,weatherlink.com 1.10,2013-01-07 08:44:00,
2013-01-07 04:59:00,70.6,-99.9,30.01,ENE,78,3.0,8.0,0,0.00,,,0.00,0,weatherlink.com 1.10,2013-01-07 08:59:00,
2013-01-07 05:14:00,70.7,-99.9,30.01,ESE,108,3.0,10.0,0,0.00,,,0.00,0,weatherlink.com 1.10,2013-01-07 09:14:00,
2013-01-07 05:29:00,70.6,-99.9,30.01,SSE,147,4.0,12.0,0,0.00,,,0.00,0,weatherlink.com 1.10,2013-01-07 09:29:00,
2013-01-07 05:44:00,70.6,-99.9,30.01,SSE,165,1.0,12.0,0,0.00,,,0.00,0,weatherlink.com 1.10,2013-01-07 09:44:00,
2013-01-07 05:59:00,70.7,-99.9,30.02,East,95,5.0,10.0,0,0.00,,,0.00,0,weatherlink.com 1.10,2013-01-07 09:59:00,
2013-01-07 06:14:00,70.9,-99.9,30.02,East,80,3.0,10.0,0,0.00,,,0.00,0,weatherlink.com 1.10,2013-01-07 10:14:00,
2013-01-07 06:29:00,70.7,-99.9,30.02,East,96,3.0,9.0,0,0.00,,,0.00,0,weatherlink.com 1.10,2013-01-07 10:29:00,
2013-01-07 06:44:00,70.5,-99.9,30.02,ESE,120,2.0,9.0,0,0.00,,,0.00,0,weatherlink.com 1.10,2013-01-07 10:44:00,
2013-01-07 06:59:00,70.4,-99.9,30.04,ESE,103,4.0,8.0,0,0.00,,,0.00,0,weatherlink.com 1.10,2013-01-07 10:59:00,
2013-01-07 07:14:00,70.4,-99.9,30.04,ESE,109,0.0,7.0,0,0.00,,,0.00,12,weatherlink.com 1.10,2013-01-07 11:14:00,
2013-01-07 07:29:00,70.5,-99.9,30.05,ESE,123,1.0,9.0,0,0.00,,,0.00,32,weatherlink.com 1.10,2013-01-07 11:29:00,
2013-01-07 07:45:00,70.7,-99.9,30.05,SE,127,3.0,8.0,0,0.00,,,0.00,16,weatherlink.com 1.10,2013-01-07 11:45:00,
2013-01-07 08:00:00,70.9,-99.9,30.06,East,86,1.0,6.0,0,0.00,,,0.00,67,weatherlink.com 1.10,2013-01-07 12:00:00,
2013-01-07 08:15:00,70.8,-99.9,30.07,South,170,1.0,5.0,0,0.00,,,0.00,58,weatherlink.com 1.10,2013-01-07 12:15:00,
2013-01-07 08:30:00,71.2,-99.9,30.07,ENE,74,0.0,3.0,0,0.00,,,0.00,141,weatherlink.com 1.10,2013-01-07 12:30:00,
2013-01-07 08:45:00,71.5,-99.9,30.08,ENE,76,4.0,4.0,0,0.00,,,0.00,54,weatherlink.com 1.10,2013-01-07 12:45:00,
2013-01-07 09:00:00,71.8,-99.9,30.08,East,92,1.0,7.0,0,0.00,,,0.00,79,weatherlink.com 1.10,2013-01-07 13:00:00,
2013-01-07 09:15:00,72.2,-99.9,30.09,East,96,5.0,7.0,0,0.00,,,0.00,114,weatherlink.com 1.10,2013-01-07 13:15:00,
2013-01-07 09:30:00,72.6,-99.9,30.09,ENE,72,3.0,4.0,0,0.00,,,0.00,70,weatherlink.com 1.10,2013-01-07 13:30:00,
2013-01-07 09:45:00,72.3,-99.9,30.09,SE,130,1.0,10.0,0,0.00,,,0.00,118,weatherlink.com 1.10,2013-01-07 13:45:00,
2013-01-07 10:00:00,72.3,-99.9,30.09,East,93,1.0,8.0,0,0.00,,,0.00,264,weatherlink.com 1.10,2013-01-07 14:00:00,
2013-01-07 10:15:00,73.8,-99.9,30.09,East,81,9.0,9.0,0,0.00,,,0.00,663,weatherlink.com 1.10,2013-01-07 14:15:00,
2013-01-07 10:30:00,73.9,-99.9,30.09,ESE,107,4.0,12.0,0,0.00,,,0.00,253,weatherlink.com 1.10,2013-01-07 14:30:00,
2013-01-07 10:45:00,76.0,-99.9,30.09,East,92,5.0,11.0,0,0.00,,,0.00,705,weatherlink.com 1.10,2013-01-07 14:45:00,
2013-01-07 11:00:00,78.7,-99.9,30.08,East,87,13.0,16.0,0,0.00,,,0.00,809,weatherlink.com 1.10,2013-01-07 15:00:00,
2013-01-07 11:16:00,79.1,18.0,30.08,North,11,5.0,17.0,10,0.00,,,0.00,802,weatherlink.com 1.10,2013-01-07 15:16:00,
2013-01-07 11:31:00,79.4,7.0,30.07,South,182,4.0,12.0,6,0.00,,,0.00,747,weatherlink.com 1.10,2013-01-07 15:31:00,
2013-01-07 12:01:00,79.5,29.0,30.05,East,98,3.0,11.0,16,0.00,,,0.00,837,weatherlink.com 1.10,2013-01-07 16:01:00,
2013-01-07 12:16:00,79.6,23.0,30.05,ENE,67,9.0,14.0,12,0.00,,,0.00,800,weatherlink.com 1.10,2013-01-07 16:16:00,
2013-01-07 12:31:00,79.2,28.0,30.04,East,101,8.0,13.0,15,0.00,,,0.00,158,weatherlink.com 1.10,2013-01-07 16:31:00,
2013-01-07 12:46:00,80.5,32.0,30.04,ENE,65,3.0,15.0,17,0.00,,,0.00,900,weatherlink.com 1.10,2013-01-07 16:46:00,
2013-01-07 13:01:00,82.0,48.0,30.03,East,84,5.0,13.0,31,0.00,,,0.00,334,weatherlink.com 1.10,2013-01-07 17:01:00,
2013-01-07 13:16:00,78.2,-99.9,30.02,ESE,119,1.0,10.0,0,0.00,,,0.00,181,weatherlink.com 1.10,2013-01-07 17:16:00,
2013-01-07 13:32:00,80.4,42.0,30.02,SE,125,3.0,7.0,26,0.00,,,0.00,886,weatherlink.com 1.10,2013-01-07 17:32:00,
2013-01-07 13:47:00,81.3,32.0,30.01,East,94,1.0,11.0,17,0.00,,,0.00,937,weatherlink.com 1.10,2013-01-07 17:47:00,
2013-01-07 14:02:00,80.1,38.0,30.00,SSE,147,2.0,9.0,22,0.00,,,0.00,758,weatherlink.com 1.10,2013-01-07 18:02:00,
2013-01-07 14:18:00,81.2,57.0,30.00,ENE,60,4.0,13.0,43,0.00,,,0.00,294,weatherlink.com 1.10,2013-01-07 18:18:00,
2013-01-07 14:32:00,80.1,51.0,29.99,ESE,104,4.0,10.0,36,0.00,,,0.00,737,weatherlink.com 1.10,2013-01-07 18:32:00,
2013-01-07 14:47:00,81.0,52.0,29.99,NE,48,2.0,13.0,36,0.00,,,0.00,656,weatherlink.com 1.10,2013-01-07 18:47:00,
2013-01-07 15:02:00,79.7,54.0,29.99,East,81,2.0,13.0,41,0.00,,,0.00,137,weatherlink.com 1.10,2013-01-07 19:02:00,
2013-01-07 15:17:00,79.4,49.0,29.99,East,88,5.0,7.0,35,0.00,,,0.00,165,weatherlink.com 1.10,2013-01-07 19:17:00,
2013-01-07 15:32:00,79.6,41.0,29.99,ESE,121,2.0,14.0,25,0.00,,,0.00,98,weatherlink.com 1.10,2013-01-07 19:32:00,
2013-01-07 15:48:00,80.4,34.0,29.99,NE,39,2.0,9.0,19,0.00,,,0.00,107,weatherlink.com 1.10,2013-01-07 19:48:00,
2013-01-07 16:03:00,79.3,41.0,29.99,East,97,0.0,11.0,25,0.00,,,0.00,188,weatherlink.com 1.10,2013-01-07 20:03:00,
2013-01-07 16:18:00,79.8,50.0,29.99,ENE,67,1.0,6.0,35,0.00,,,0.00,359,weatherlink.com 1.10,2013-01-07 20:18:00,
2013-01-07 16:32:00,80.7,45.0,30.00,East,79,2.0,8.0,28,0.00,,,0.00,359,weatherlink.com 1.10,2013-01-07 20:32:00,
2013-01-07 16:48:00,79.0,31.0,30.00,ENE,75,2.0,10.0,17,0.00,,,0.00,244,weatherlink.com 1.10,2013-01-07 20:48:00,
2013-01-07 17:03:00,78.9,-99.9,30.00,East,101,0.0,6.0,0,0.00,,,0.00,171,weatherlink.com 1.10,2013-01-07 21:03:00,
2013-01-07 17:18:00,78.2,-99.9,30.00,East,98,1.0,5.0,0,0.00,,,0.00,137,weatherlink.com 1.10,2013-01-07 21:18:00,
2013-01-07 17:33:00,77.2,-99.9,30.01,ESE,109,2.0,7.0,0,0.00,,,0.00,83,weatherlink.com 1.10,2013-01-07 21:33:00,
2013-01-07 17:48:00,76.0,-99.9,30.01,ENE,57,3.0,9.0,0,0.00,,,0.00,26,weatherlink.com 1.10,2013-01-07 21:48:00,
2013-01-07 18:03:00,75.1,-99.9,30.01,East,100,0.0,5.0,0,0.00,,,0.00,5,weatherlink.com 1.10,2013-01-07 22:03:00,
2013-01-07 18:18:00,74.2,-99.9,30.01,ESE,108,0.0,4.0,0,0.00,,,0.00,0,weatherlink.com 1.10,2013-01-07 22:18:00,
2013-01-07 18:33:00,73.6,-99.9,30.02,ENE,63,0.0,7.0,0,0.00,,,0.00,0,weatherlink.com 1.10,2013-01-07 22:33:00,
2013-01-07 18:48:00,73.4,-99.9,30.03,ENE,64,2.0,3.0,0,0.00,,,0.00,0,weatherlink.com 1.10,2013-01-07 22:48:00,
2013-01-07 19:03:00,73.1,-99.9,30.03,East,88,2.0,3.0,0,0.00,,,0.00,0,weatherlink.com 1.10,2013-01-07 23:03:00,
2013-01-07 19:19:00,72.6,-99.9,30.04,ESE,115,2.0,5.0,0,0.00,,,0.00,0,weatherlink.com 1.10,2013-01-07 23:19:00,
2013-01-07 19:34:00,72.1,-99.9,30.05,East,91,2.0,5.0,0,0.00,,,0.00,0,weatherlink.com 1.10,2013-01-07 23:34:00,
2013-01-07 19:49:00,72.1,-99.9,30.05,East,86,0.0,4.0,0,0.00,,,0.00,0,weatherlink.com 1.10,2013-01-07 23:49:00,
2013-01-07 20:04:00,71.6,-99.9,30.05,East,86,2.0,3.0,0,0.00,,,0.00,0,weatherlink.com 1.10,2013-01-08 00:04:00,
2013-01-07 20:19:00,71.2,-99.9,30.06,East,86,0.0,1.0,0,0.00,,,0.00,0,weatherlink.com 1.10,2013-01-08 00:19:00,
2013-01-07 20:34:00,71.3,-99.9,30.06,East,86,1.0,2.0,0,0.00,,,0.00,0,weatherlink.com 1.10,2013-01-08 00:34:00,
2013-01-07 20:53:00,71.5,-99.9,30.06,ESE,107,2.0,5.0,0,0.00,,,0.00,0,weatherlink.com 1.10,2013-01-08 00:53:00,
2013-01-07 21:04:00,71.4,-99.9,30.07,ESE,117,0.0,4.0,0,0.00,,,0.00,0,weatherlink.com 1.10,2013-01-08 01:04:00,
2013-01-07 21:19:00,71.6,-99.9,30.07,ESE,110,2.0,6.0,0,0.00,,,0.00,0,weatherlink.com 1.10,2013-01-08 01:19:00,
2013-01-07 21:34:00,71.1,-99.9,30.07,East,88,1.0,3.0,0,0.00,,,0.00,0,weatherlink.com 1.10,2013-01-08 01:34:00,
2013-01-07 21:50:00,70.4,-99.9,30.07,East,88,1.0,2.0,0,0.00,,,0.00,0,weatherlink.com 1.10,2013-01-08 01:50:00,
2013-01-07 22:04:00,70.3,-99.9,30.07,East,88,1.0,3.0,0,0.00,,,0.00,0,weatherlink.com 1.10,2013-01-08 02:04:00,
2013-01-07 22:19:00,70.3,-99.9,30.07,East,88,1.0,5.0,0,0.00,,,0.00,0,weatherlink.com 1.10,2013-01-08 02:19:00,
2013-01-07 22:35:00,69.8,-99.9,30.07,East,88,0.0,3.0,0,0.00,,,0.00,0,weatherlink.com 1.10,2013-01-08 02:35:00,
2013-01-07 22:50:00,69.8,-99.9,30.07,East,88,0.0,2.0,0,0.00,,,0.00,0,weatherlink.com 1.10,2013-01-08 02:50:00,
2013-01-07 23:20:00,70.2,-99.9,30.07,ESE,111,0.0,3.0,0,0.00,,,0.00,0,weatherlink.com 1.10,2013-01-08 03:20:00,
2013-01-07 23:35:00,70.3,-99.9,30.07,ESE,111,0.0,3.0,0,0.00,,,0.00,0,weatherlink.com 1.10,2013-01-08 03:35:00,
2013-01-07 23:50:00,70.8,-99.9,30.06,ENE,77,1.0,5.0,0,0.00,,,0.00,0,weatherlink.com 1.10,2013-01-08 03:50:00,